COSMOS 2434 (721)

Last updated on March 5, 2021, 6:35 a.m. UTC

1 32393U 07065A   21063.52996192  .00000075  00000-0  00000-0 0  9995
2 32393  64.4855 257.5008 0004952  77.5641 281.3893  2.13103168102654
UTC
Height (km)
Latitude
Longitude
Inclination
Orbital Period
UTC large
Height (km)
Speed (km/s)
/
Latitude / Longitude
Inclination (degrees)
Orbital Period (minutes)
Azimuth
Elevation
Range (km)
Doppler Factor
iOS Compass Heading
iOS Angle

Next 30 passes for location: Hong Kong

Rise time Rise Azimuth (degrees) Set time Set Azimuth (degrees) Duration Max altitude (degrees)

No matching passes for this satellites